ENBO

Bodø Airport

Airport
ICAO code
ENBO
IATA Code
BOO
Summary
ICAO Region
EUR
ICAO Territory
Location

Bodø, Nordland,

Serving
Bodø
Elevation
42 ft
Coordinates
67° 16' 6" N , 14° 21' 24" E
KCC
Metar
ENBO 161420Z 02009KT 350V060 9999 FEW025 SCT051 05/M02 Q1008 NOSIG

Description

International airport serving Nordland region of northern Norway.

Climatology

Subpolar Oceanic climate (Köppen climate classification Cfc) - uniform precipitation distribution, temperatures are moderated by the proximity of the ocean and warm currents - cool summers and comparatively mild winters.

Runways

Designator Length Width Surface Rops
7/25 3394 45 CON Yes/Yes

Airport map

Aerial View

SKYbrary Partners:

Safety knowledge contributed by: